User: anonymous   Login
Location: Unspecified
(0.0000°N, 0.0000°E)
Time: 12:06:19
(UTC+01:00)
Language:

Meteor PRIRODA - Orbit

View from above orbital plane
View from above orbital plane
View from above satellite
View from above satellite

Ground track
Ground track

The orbit data is extracted from the following two-line orbital elements,

1 12585U 81065A   14329.51919414  .00005578  00000-0  29672-3 0  9583
2 12585 097.3323 315.0443 0018541 067.6954 045.4259 15.15500562820410
Epoch (UTC): 25 November 2014 12:27:38
Eccentricity: 0.0018541
inclination: 97.3323°
perigee height: 506 km
apogee height: 532 km
right ascension of ascending node: 315.0443°
argument of perigee: 67.6954°
revolutions per day: 15.15500562
mean anomaly at epoch: 45.4259°
orbit number at epoch: 82041

The dashed part of the orbit path shows where the satellite is in the earth's shadow,  

DLR